Regional Weather Roundup
Issued by NWS

Home | Current Version | Previous Version | Text Only | Print | Product List | Glossary Off
Versions: 1 2 3 4 5 6 7 8 9 10 11 12 13 14 15 16 17 18 19 20 21 22 23 24 25 26 27 28 29 30 31 32 33 34 35 36 37 38 39 40 41 42 43 44 45 46 47 48 49 50

741
ASUS43 KOAX 300110
RWRNE

WEATHER ROUNDUP FOR NEBRASKA
NATIONAL WEATHER SERVICE OMAHA NE
800 PM CDT MON MAY 29 2017

NOTES: SATELLITE DATA IS BEING USED TO AUGMENT CLOUD COVER ABOVE
       12000 FEET.
       "FAIR" INDICATES FEW OR NO CLOUDS BELOW 12,000 FEET WITH NO
       SIGNIFICANT WEATHER AND/OR OBSTRUCTIONS TO VISIBILITY.

  * THESE STATIONS DO NOT REPORT WEATHER SUCH AS RAIN...SNOW OR FOG.

NEZ001>004-019>022-054>056-300200-
NEBRASKA PANHANDLE

CITY           SKY/WX    TMP DP  RH WIND       PRES   REMARKS
SCOTTSBLUFF    SUNNY     70  31  23 N14       30.12S
ALLIANCE       SUNNY     66  30  26 N13G24    30.10S
CHADRON        SUNNY     65  40  39 E8        30.09S
GORDON         FAIR      64  35  33 N6        30.10S
KIMBALL        CLOUDY    65  38  37 W6        30.17F
SIDNEY         SUNNY     67  36  31 N10       30.14S
$$

NEZ057>060-069>072-079>082-300200-
SOUTHWEST NEBRASKA

CITY           SKY/WX    TMP DP  RH WIND       PRES   REMARKS
NORTH PLATTE   SUNNY     70  38  31 NE7       30.06S
IMPERIAL       MOSUNNY   71  34  25 NW9       30.08S
LEXINGTON      CLEAR     72  31  22 N12       30.06S
MCCOOK         MOSUNNY   75  39  27 N12       30.05S
OGALLALA       SUNNY     72  36  27 N10       30.09R
$$

NEZ005>010-023>029-035>040-094-300200-
NORTH CENTRAL NEBRASKA

CITY           SKY/WX    TMP DP  RH WIND       PRES   REMARKS
VALENTINE      SUNNY     68  31  25 N14       30.06S
AINSWORTH      SUNNY     65  36  33 NW13      30.06S
BROKEN BOW     CLEAR     70  34  26 N10       30.05F
O`NEILL        PTCLDY    65  34  31 NW8       30.04S
ORD            CLEAR     67  34  29 NW13      30.03F
THEDFORD       SUNNY     68  36  30 N10       30.07S
$$

NEZ041-046>049-061>064-073>077-083>087-300200-
SOUTH CENTRAL NEBRASKA

CITY           SKY/WX    TMP DP  RH WIND       PRES   REMARKS
GRAND ISLAND   CLEAR     69  38  32 N13       30.05S
AURORA         CLEAR     71  34  26 NW13      30.04F
HASTINGS       CLEAR     71  36  27 N12       30.05F
HEBRON         CLEAR     74  36  25 N6        30.03R
HOLDREGE       CLEAR     71  33  24 N10       30.05S
KEARNEY *      CLEAR     72  36  26 N10       30.05F
YORK           CLEAR     70  34  26 NW12      30.04S
$$

NEZ011>018-030>034-042>045-300200-
NORTHEAST NEBRASKA

CITY           SKY/WX    TMP DP  RH WIND       PRES   REMARKS
NORFOLK        PTCLDY    66  40  38 N10       30.02S
ALBION         CLEAR     66  37  34 NW10      30.04S
BLAIR          PTCLDY    69  40  34 NW15      30.01R
FREMONT        PTCLDY    69  39  33 NW13G18   30.02S
TEKAMAH        CLEAR     69  38  32 NW15      30.00R
WAYNE          PTCLDY    66  40  38 NW12G21   30.02R
$$

NEZ050>053-065>068-078-088>093-300200-
SOUTHEAST NEBRASKA

CITY           SKY/WX    TMP DP  RH WIND       PRES   REMARKS
LINCOLN        CLEAR     73  35  25 NW12      30.02S
OMAHA EPPLEY   PTCLDY    70  41  34 NW16      29.99R
BEATRICE       CLEAR     71  39  31 N14       30.02R
NEBRASKA CITY  CLEAR     72  26  18 NW13      30.00S
PLATTSMOUTH    CLEAR     71  37  28 NW9       30.00S
$$

NEZ044-045-051>053-067-300200-
OMAHA AREA

CITY           SKY/WX    TMP DP  RH WIND       PRES   REMARKS
OMAHA EPPLEY   PTCLDY    70  41  34 NW16      29.99R
BLAIR          PTCLDY    69  40  34 NW15      30.01R
FREMONT        PTCLDY    69  39  33 NW13G18   30.02S
MILLARD        PTCLDY    72  41  32 NW10G16   30.00S
OFFUTT AFB     CLEAR     69  37  30 NW12      29.99R
PLATTSMOUTH    CLEAR     71  37  28 NW9       30.00S
WAHOO          FAIR      71  35  26 NW10      30.01S
$$




USA.gov is the U.S. government's official web portal to all federal, state and local government web resources and services.